Погода Карасу

Погода Карасу : погода сейчас, прогноз погоды и архив. Всё, что Вы хотите узнать о погоде Карасу!

Поиск расширенной информации на нашем сайте:

Другие новости

Новости СМИ2

Главная страница сайта

Новости сайта

03.07.2017

Напоминаем, что на нашем специализированном сайте Метеоцентр.Азия вы можете получить высокодетализированные автоматические прогнозы погоды по пунктам России, СНГ и мира в авиационном формате (включающие направление и скорость ветра, видимость, явления погоды, количество и форму облачности, нижнюю и верхнюю границу облачности).

Рекомендуем: Самая подробная информация пояс верности силиконовый у нас.

Погода Карасу - сегодня

Время (UTC), дата Ветер
(°,м/с) 
Видим.   Явления Облачность Т
(°С)
Тd
(°С)
f(%) Тe
(°С)
Pmin
(гПа)
dP
(гПа)
Po
(мм)
O2
(г/м3)
Тmin Tmax R s Состояние
почвы
21 17.04.18 320 (СЗ) н/о    9/9 600 м кучево-дожд. 
[Cb calv]
+8.1 +4 75 +9  1021.1  0.8  690  269           
00 18.04.18 090 (В) н/о    9/9 600 м кучево-дожд. 
[Cb calv]
+7 +4.6 85 +6  1022.8  1.2  691  271           
03 18.04.18 340 (С) 4000 м  слаб. ливневой дождь  10/10 300 м кучево-дожд. 
[Cb cap]
+5.8 +5.1 95 +6  1025.8  2.3  693  272           
06 18.04.18 070 (В) 4000 м  слаб. ливневой дождь  10/10 600 м кучево-дожд. 
[Cb cap]
+5 +3.8 92 +6  1027.9  1.5  694  274  +4.5        полностью
покрыта
пылью 
09 18.04.18 050 (СВ) 10 км  слаб. ливневой дождь  10/10 600 м кучево-дожд. 
[Cb cap]
+6.4 +4.3 86 +6  1026.3  -3.2  693  272        597  мокрый или
старый снег
10-40% 
12 18.04.18 250 (З) 2-4  4000 м  слаб. ливневой дождь  10/10 600 м кучево-дожд. 
[Cb cap]
+5.6 +4 89 +5  1026.2  -0.3  693  273           
15 18.04.18 160 (Ю) н/о  в посл. час ливневой дождь  9/9 600 м кучево-дожд. 
[Cb calv]
+5.4 +4.2 92 +6  1026.7  0.4  694  273    +6.8     
18 18.04.18 140 (ЮВ) н/о  в посл. час ливневой дождь  9/9 600 м кучево-дожд. 
[Cb calv]
+4.8 +3.8 93 +6  1027.4  0.4  694  274    +6.8     
21 18.04.18 тихо ()   н/о    9/9 600 м кучево-дожд. 
[Cb calv]
+5.2 +4.7 97 +5  1025.7  -1.4  693  273           
00 19.04.18 тихо () -0  н/о    9/9 600 м кучево-дожд. 
[Cb calv]
+5.3 +4.7 96 +5  1024.5  -1  692  273           
03 19.04.18 тихо () -0  10 км    9/9 600 м кучево-дожд. 
[Cb calv]
+6.3 +4.9 91 +6  1023.4  -0.7  692  271  +4.6         
06 19.04.18 тихо ()   20000 м    9/9 600 м кучево-дожд. 
[Cb calv]
+8.5 +4.5 76 +9  1022.1  -0.5  691  269  +4    0.0     
09 19.04.18 270 (З) 20000 м    9/9 600 м кучево-дожд. 
[Cb calv]
+10.9 +3.4 60 +11  1021  -0.1  691  267      360  698  мокрый или
старый снег
50-90% 
12 19.04.18 340 (С) 3-5  20000 м    9/9 600 м кучево-дожд. 
[Cb calv]
+12.3 +5 61 +12  1019.1  -1.2  690  265           
15 19.04.18 270 (З) н/о    9/9 600 м 
[Sc]
+9.1 +6.1 81 +10  1020.8  0.4  690  268    +12.5       
18 19.04.18 160 (Ю) н/о    9/9 600 м 
[Sc]
+8.1 +6.1 87 +9  1021.2  0.1  691  269    +12.5       
21 19.04.18 200 (Ю) н/о    9/9 600 м 
[Sc]
+7.9 +6.5 91 +9  1020.2  -0.9  690  269           
00 20.04.18 тихо ()   н/о    9/9 600 м 
[Sc]
+7.3 +6.2 93 +7  1019.7  -0.7  689  269  +0      мокрый или
старый снег
50-90% 
03 20.04.18 тихо () -2  10 км    9/9 600 м 
[Sc]
+8.5 +6.1 85 +9  1018.4  -0.8  689  268  +7.4         
06 20.04.18 270 (З) 20000 м    9/9 600 м 
[Sc]
+11.3 +4.6 63 +12  1017.1  -0.2  689  266  +7         
09 20.04.18 270 (З) 20000 м    9/5 600 м кучево-дожд., верхняя 
[Cb calv|Ci fib]
+14.8 +5.3 53 +16  1013.3  -2.4  687  262           
12 20.04.18 270 (З) 20000 м    9/9 600 м кучево-дожд. 
[Cb calv]
+15.6 +4 46 +17  1012.2  -0.7  686  261      310  698  мокрый или
старый снег
50-90% 
15 20.04.18 090 (В) 1-2  н/о    9/3 600 м кучево-дожд., верхняя 
[Cb calv|Ci fib]
+10.1 +7.1 82 +11  1014.7  0.5  687  265    +16.2       
18 20.04.18 180 (Ю) н/о    9/9 600 м 
[Sc]
+8.1 +5.6 84 +9  1015.9  0.4      +16.2       
21 20.04.18 180 (Ю) н/о    9/3 верхняя 
[Sc|Ci fib]
+7.7 +5.9 88 +9  1016.1  687  268          частично
покрыта
пылью 
Время (UTC), дата Ветер
(°,м/с) 
Видим.   Явления Облачность Т
(°С)
Тd
(°С)
f(%) Тe
(°С)
Pmin
(гПа)
dP
(гПа)
Po
(мм)
O2
(г/м3)
Тmin Tmax R s Состояние
почвы

Для получения пояснительной информации подведите курсор к названию столбца.

ПОГОДА Карасу - архив

Всё, что Вы хотите узнать о погоде Карасу - удобно и подробно!

Выберите нужную дату (начиная с 1 января 2015* года) и нажмите кнопку "Найти".
Будут отображены архивные сводки погоды по пункту Карасу, начиная с указанной даты.


Отображать данные в формате CSV (для использования в таблицах Excel)


Внимание! Наш архив погоды предназначен исключительно для личного некоммерческого использования в познавательных целях. Если Вам необходимы официальные справки о состоянии погоды (для производственных, юридических, коммерческих и т.п. целей), обращайтесь в органы Росгидромета.

*Примечание: данная дата относится к архиву по метеостанциям СССР (Россия, СНГ, Балтия).
Архив по метеостанциям Зарубежной Европы и Азии (кроме Китая) хранится 10 дней, по другим регионам земного шара (Китай, Африка, Америка, Австралия, Океания) - 1 день.

Карасу - район местоположения метеостанции


Название, широта, долгота, высота метеостанции:
Карасу 40.7°ш. 72.9°д. 865 м над ур. моря [Кыргызстан]

Дополнительная информация

В oтличие oт бoльшинства пoгoдных сайтoв мы публикуем пoдрoбную метеoинфoрмацию в детальнoм прoфессиoнальнoм фoрмате.

Характеристики температуры и влажнoсти вoздуха измеряются на высoте 2 м в тени вдали oт зданий и деревьев.
Скoрoсть ветра измеряется на высoте 10 м (на урoвне рoста челoвека скoрoсть ветра ниже в 1.5-2 раза). Если метеoстанция нахoдится в гoрoде или в лесу, тo скoрoсть ветра занижена на 2-4 м/с пo сравнению с oткрытым местoм. Скoрoсть ветра над акватoриями крупных рек и oзёр, а также на вершинах хoлмoв на 2-5 м/с выше, чем в oбычных услoвиях.
Атмoсфернoе давление в разных тoчках местнoсти мoжет значительнo oтличаться oт давления на метеoстанции, в зависимoсти oт услoвий рельефа (при пoдъёме на 10 м давление пoнижается примернo на 1 мм рт.ст.).